User: anonymous   Login
Location: Caltech
(34.1382°N, 118.1253°W)
Time: 06:55:48
(UTC-07:00)
Language:

Meteor 2-4 Rocket - Orbit

View from above orbital plane
View from above orbital plane
View from above satellite
View from above satellite

Ground track
Ground track

The orbit data is extracted from the following two-line orbital elements,

1 11289U 79021B   17263.91099989 +.00000035 +00000-0 +12304-4 0  9995
2 11289 081.2450 070.7561 0075017 322.7077 036.8899 14.11565128984072
Epoch (UTC): 20 September 2017 21:51:50
Eccentricity: 0.0075017
inclination: 81.2450°
perigee height: 800 km
apogee height: 908 km
right ascension of ascending node: 70.7561°
argument of perigee: 322.7077°
revolutions per day: 14.11565128
mean anomaly at epoch: 36.8899°
orbit number at epoch: 98407

The dashed part of the orbit path shows where the satellite is in the earth's shadow,  

DLR